Vertical_Velocity
-0 0 -0 -1 -1 -1 -0 -1 0 -0 0 -0 -0 -0 -0 0 0 0 -0 -1 -0 -1 -1 -0 -1 1 -1 -10 -3 -0 -1 -1 -0 0 -9 -5 -14 -1 -1 -0 -0 -2 -1 -0 0 0 -1
1 1 -1 -0 -0 -0 -1 0 0 1 0 0 0 -0 0 -0 -0 -1 -0 -0 -0 -2 -2 -0 -1 2 -3 -17 2 0 0 1 -2 -3 -3 -6 -2 1 -2 -0 -2 1 0 -2 -1 2 -2
1 0 0 0 -0 -1 -0 -1 0 -0 -0 -0 -0 -1 0 -0 -0 -0 1 -0 -1 -1 -0 -1 -1 -1 -7 -1 -1 0 0 -3 -1 -1 -4 -0 -2 -15 -1 -1 -2 2 -2 -3 -0 1 0
-0 0 0 -0 -0 0 0 0 -0 -1 -0 -1 -1 -1 0 -1 -1 -1 -1 -1 -1 -1 -1 -2 -3 -3 -5 -1 0 3 -0 -2 -1 0 -2 0 -5 -4 -3 2 -1 -4 -5 -3 -4 -2 -1
-0 0 0 0 0 0 1 -0 -0 0 -0 -1 -2 -1 -1 -0 -1 -2 -2 -0 0 0 -1 -1 -2 -2 -2 -3 -5 -2 -3 -3 -2 -0 -2 -1 -3 -3 -11 -3 -5 -4 -2 -0 -8 2 -1
0 -0 0 0 0 0 -0 -0 -1 -0 -1 -0 -1 -1 -2 -0 -1 -1 -1 -0 3 -1 -1 -0 1 -2 -2 -2 -1 -1 -1 -0 -2 0 -4 -8 -4 -4 -3 -7 -3 -1 -1 -2 -0 -6 -3
0 0 0 0 0 -0 0 0 -0 -1 -1 -0 -1 -1 -1 -2 -1 -1 -0 -1 -1 -2 -8 1 -4 -1 -3 1 -2 0 -1 1 -1 -5 -2 -1 -12 -0 1 1 -0 1 1 0 -4 -4 5
-0 0 0 0 -1 0 1 0 -1 -1 -0 -0 -1 -1 -1 -1 -1 -1 -1 -2 -1 -2 -4 -1 -1 -1 -1 -1 -2 -6 -4 -5 -8 -1 -1 -8 -2 -1 1 -0 0 0 0 -3 -8 -1 6
-0 0 -0 -0 -1 -0 0 -1 -1 -1 -1 -1 -1 -1 -0 -0 -1 1 -2 -2 -1 -1 -4 -0 -1 -1 -0 -2 -0 -1 -2 0 -1 -2 -0 -3 -2 0 -0 -0 -2 -1 -0 -1 2 -4 -2
-1 -0 -0 -0 -1 -1 0 -0 1 -0 -0 -1 -1 -0 0 -1 -2 -1 -1 -1 -1 -1 -7 -8 -2 -1 -0 -1 -2 1 -0 1 -4 -1 0 -1 -0 0 -0 0 -0 1 -2 3 1 -4 -4
-0 -0 -0 -1 -1 -1 -1 0 -0 -0 -1 -1 -0 -1 -1 -0 0 -1 -1 -1 -1 -0 -10 -9 -2 1 -0 -5 1 -3 -1 -2 -0 -0 -6 -3 -1 -1 -1 2 -0 -12 4 4 0 -1 -5
-0 -0 -1 0 -1 -0 -1 -0 0 -1 -1 -0 -1 -0 -2 -2 -2 -2 -1 -1 -1 -20 -11 -3 0 -3 -3 -2 -1 -1 -3 -1 -0 -1 -1 0 0 -1 -1 -1 -0 -2 -2 -1 -1 -2 -7
1 -0 -0 0 -0 0 1 0 -1 -1 -1 -1 -0 -0 -2 -2 -0 -0 -1 -0 -14 -13 -6 -6 -2 -1 -0 -2 -4 -3 -3 -7 -5 -9 -6 -5 -1 -0 0 -1 -1 -5 -6 -7 -15 -11 -7
-0 -0 -0 1 0 0 -0 -1 -1 -1 -1 -1 -1 -1 -1 -0 0 -0 -0 -8 -12 -1 0 -0 0 -1 -1 0 -0 -1 -1 -1 -1 -2 -2 -1 -11 -1 -1 -4 -5 1 -6 -7 -3 -1 -4
-0 0 -1 -1 -0 -0 -1 -1 -0 -1 -1 -1 0 -0 -1 -0 0 0 0 -8 -5 -1 1 0 -3 -1 -1 -0 -1 -4 -0 -1 -1 -2 -6 -2 -4 1 -1 0 -8 -4 -7 -5 -5 -1 -2
-0 -0 -1 -1 -1 -1 -2 -1 -1 -2 -2 -1 -0 -0 -1 -1 -1 0 -9 -2 -0 -0 -0 1 -1 -1 0 -1 -3 -4 -2 -5 -1 -1 1 -1 -8 -0 2 -2 -1 -9 -6 -11 -6 -6 -3
-1 -1 -1 0 0 -1 -2 -2 -2 -2 -2 -3 -2 -1 -1 -1 -1 0 -5 -2 -0 -0 -0 1 0 -1 -1 -0 -0 -0 -3 -4 0 1 1 -2 -7 -7 -2 -2 -6 -3 -2 -4 -9 -5 -5
-1 -0 -0 -1 -1 -1 -1 -1 -2 -2 -2 -2 -3 -4 -1 -1 -4 0 -1 -0 -0 -0 -0 -0 -2 -1 -1 -0 -0 0 -0 -3 -0 -3 -2 -2 -5 -1 -6 -1 -1 -2 -3 -4 -7 -8 -1
0 -1 -1 -1 -0 -0 -1 -1 -2 -2 -3 -3 -2 -2 -2 -2 -5 -1 0 -0 0 1 -0 0 0 -1 -0 -0 -5 0 -0 0 -1 -1 -5 -6 -5 -5 -9 -6 -5 -1 -1 -1 -1 -3 -4
-0 -0 -0 -0 -0 -0 -1 -1 -2 -2 -2 -2 -1 -7 -1 -2 -1 -4 -1 -0 0 -0 0 -0 -0 -0 0 0 0 -2 -1 1 1 0 0 -0 -0 -5 -9 -10 -5 -1 1 -0 -5 -2 -4
-0 0 -0 -1 -1 -0 0 -1 -1 -2 -1 -1 -1 -1 -0 -4 -3 -0 0 -2 0 -0 0 1 0 -0 -3 -1 0 -1 0 1 2 0 2 -3 -0 1 -4 -2 3 -0 0 -0 1 -6 -5
-1 -1 -1 -1 -0 -0 -1 -1 1 -1 -1 -0 0 -0 -0 0 1 -0 1 -3 -1 -0 -6 -1 1 -0 -0 -2 -7 -3 -1 0 -4 3 -0 1 -4 0 -3 -1 1 0 -1 0 -0 -2 2
-0 -1 -2 -1 -2 -2 -0 -0 -3 -0 -0 -2 -0 -1 -1 0 0 -2 -4 -2 -3 -0 1 -1 -3 -1 2 -9 0 -2 -1 1 -1 -7 -1 -1 -0 -2 -6 0 -1 -4 -7 -2 -2 -0 -7
5 3 0 1 0 -5 -3 -1 -0 -3 -0 -2 -1 -1 0 -4 -0 -4 -0 -0 -0 -2 -3 -0 1 -2 -2 -0 2 4 3 1 2 -1 0 -1 -0 -0 -2 -3 -7 -17 -0 -3 -4 -3 0
0 1 -0 1 1 4 1 -3 -1 1 1 -2 -1 1 -1 -2 -0 0 2 -0 0 0 0 1 1 1 -1 -0 -4 -3 -0 -1 1 0 1 -1 -1 -2 -0 -1 -18 -2 -2 -5 -6 -15 -2
3 2 6 4 11 -1 4 3 -2 -0 -1 3 0 1 1 1 -9 3 -1 -0 -2 -0 -1 0 1 2 1 -1 -2 -1 -3 -3 0 3 -0 -0 -2 -3 -1 0 -2 -9 -1 0 -3 -11 -2
-1 -1 2 7 4 6 2 3 6 3 -1 -2 1 2 2 -1 -5 -2 -3 -3 1 1 -2 0 -1 -1 -0 -0 -0 -1 -3 -3 -3 -1 -1 -0 -0 -2 -0 -1 -14 -4 -0 -0 -9 -23 -1
-2 1 -0 1 -0 2 16 15 -2 8 -1 -0 -2 3 3 -2 -9 0 1 -1 -3 -1 -3 0 -3 1 -1 -1 0 -2 0 -3 -1 -3 -5 -7 -6 -2 2 1 -12 -1 2 -4 -10 -1 -1
2 -2 -1 -2 -1 -5 3 16 15 6 3 4 0 4 6 1 1 -1 -2 -0 -2 3 -1 -3 -2 -3 -6 -1 1 0 0 1 -3 -3 0 -6 -9 -9 -11 -19 -2 -2 -1 -0 0 1 -0
Height
1578 1577 1577 1576 1575 1574 1573 1572 1570 1569 1567 1565 1563 1561 1559 1558 1557 1557 1557 1557 1556 1555 1554 1553 1551 1548 1548 1544 1555 1551 1548 1546 1543 1541 1534 1533 1532 1535 1542 1543 1543 1545 1547 1545 1544 1541 1542
1581 1580 1579 1578 1578 1577 1575 1574 1573 1571 1569 1567 1565 1563 1561 1560 1559 1559 1559 1558 1557 1556 1555 1554 1554 1552 1549 1548 1557 1552 1550 1549 1546 1542 1540 1537 1539 1541 1543 1545 1546 1547 1545 1543 1540 1540 1539
1583 1582 1581 1581 1580 1579 1577 1576 1574 1573 1571 1569 1567 1565 1563 1561 1560 1560 1560 1559 1558 1557 1555 1555 1554 1554 1552 1561 1557 1554 1552 1550 1548 1545 1543 1543 1544 1544 1544 1546 1547 1546 1546 1543 1540 1541 1539
1585 1584 1584 1582 1581 1580 1579 1578 1576 1575 1573 1571 1569 1567 1565 1563 1562 1561 1561 1559 1558 1558 1556 1555 1554 1554 1557 1560 1558 1556 1554 1552 1550 1548 1547 1547 1546 1545 1546 1547 1547 1550 1551 1554 1539 1540 1540
1586 1586 1585 1584 1583 1583 1581 1580 1578 1577 1575 1573 1571 1569 1567 1565 1563 1563 1562 1560 1559 1559 1558 1557 1557 1555 1561 1562 1560 1556 1555 1553 1551 1550 1549 1548 1547 1551 1551 1555 1559 1564 1574 1562 1550 1541 1543
1588 1588 1587 1586 1585 1584 1583 1582 1580 1578 1577 1575 1573 1570 1568 1567 1565 1564 1562 1562 1561 1559 1559 1558 1558 1560 1565 1566 1562 1559 1555 1553 1551 1550 1550 1550 1551 1560 1565 1565 1582 1574 1576 1564 1557 1543 1543
1589 1589 1588 1588 1587 1586 1585 1584 1582 1580 1578 1576 1574 1571 1569 1568 1565 1564 1562 1562 1565 1565 1561 1567 1572 1568 1569 1567 1565 1561 1555 1555 1553 1553 1558 1557 1566 1575 1574 1572 1572 1574 1576 1572 1554 1546 1544
1591 1590 1590 1589 1589 1588 1587 1585 1583 1581 1579 1577 1575 1572 1569 1567 1565 1563 1562 1561 1562 1566 1570 1571 1571 1570 1569 1567 1566 1562 1558 1558 1559 1564 1562 1565 1572 1571 1570 1570 1572 1569 1573 1565 1551 1545 1547
1592 1592 1591 1591 1590 1589 1588 1586 1585 1583 1580 1578 1575 1573 1570 1567 1566 1565 1563 1563 1564 1565 1568 1573 1573 1572 1572 1571 1569 1567 1563 1563 1563 1566 1570 1569 1570 1569 1569 1569 1570 1563 1566 1567 1568 1548 1545
1593 1593 1593 1592 1591 1590 1589 1588 1586 1584 1581 1579 1576 1574 1571 1568 1568 1565 1565 1565 1565 1566 1574 1580 1575 1576 1574 1571 1572 1570 1567 1567 1565 1571 1570 1569 1570 1570 1568 1569 1574 1575 1555 1556 1555 1564 1570
1594 1594 1593 1593 1592 1591 1590 1589 1587 1585 1582 1580 1577 1574 1572 1568 1568 1567 1568 1566 1566 1567 1589 1581 1578 1577 1575 1575 1577 1574 1570 1566 1571 1572 1572 1567 1571 1571 1568 1570 1573 1565 1555 1557 1552 1571 1576
1594 1594 1594 1593 1593 1592 1592 1590 1588 1586 1584 1581 1578 1575 1572 1570 1569 1568 1567 1567 1568 1577 1593 1580 1580 1579 1578 1577 1578 1576 1572 1570 1572 1572 1571 1572 1572 1573 1572 1569 1569 1562 1558 1555 1557 1567 1592
1594 1594 1594 1594 1593 1593 1592 1590 1589 1587 1584 1581 1578 1576 1573 1570 1570 1567 1566 1567 1576 1588 1581 1584 1586 1582 1583 1584 1580 1580 1585 1589 1593 1584 1588 1576 1572 1574 1574 1574 1568 1570 1574 1581 1562 1581 1577
1593 1594 1594 1594 1594 1593 1592 1591 1590 1588 1585 1582 1579 1577 1575 1571 1569 1567 1566 1568 1584 1584 1586 1590 1587 1585 1584 1588 1585 1586 1588 1597 1598 1601 1607 1603 1569 1577 1577 1582 1588 1585 1598 1609 1600 1590 1575
1593 1593 1593 1593 1593 1593 1592 1591 1590 1588 1585 1582 1580 1577 1575 1572 1569 1567 1567 1586 1588 1590 1594 1594 1588 1583 1585 1588 1591 1588 1597 1603 1602 1600 1603 1610 1579 1578 1578 1578 1584 1585 1599 1596 1621 1621 1623
1592 1593 1593 1593 1593 1592 1592 1591 1589 1587 1585 1582 1580 1577 1576 1573 1570 1569 1570 1589 1592 1593 1593 1594 1589 1592 1590 1592 1591 1596 1594 1600 1600 1599 1599 1607 1611 1577 1578 1579 1582 1585 1592 1604 1623 1619 1595
1592 1592 1593 1592 1592 1592 1591 1590 1589 1587 1585 1582 1579 1577 1577 1574 1572 1571 1587 1594 1592 1593 1594 1595 1593 1598 1602 1601 1597 1600 1602 1597 1596 1599 1599 1607 1614 1581 1581 1582 1586 1593 1604 1607 1612 1620 1629
1591 1592 1592 1592 1591 1591 1591 1590 1588 1587 1585 1583 1580 1579 1578 1576 1575 1582 1593 1591 1592 1592 1593 1594 1596 1600 1601 1599 1601 1596 1595 1594 1594 1595 1603 1602 1614 1608 1577 1580 1580 1584 1591 1598 1605 1613 1629
1591 1591 1591 1590 1590 1590 1590 1589 1588 1587 1585 1583 1581 1580 1579 1577 1587 1591 1592 1591 1591 1592 1592 1594 1593 1595 1597 1598 1602 1596 1592 1592 1592 1594 1599 1601 1609 1597 1564 1584 1582 1588 1594 1597 1599 1604 1606
1590 1590 1590 1590 1589 1589 1589 1588 1587 1586 1586 1585 1583 1582 1580 1580 1583 1586 1593 1591 1591 1591 1592 1592 1594 1595 1596 1596 1596 1596 1591 1591 1593 1594 1594 1596 1605 1594 1574 1554 1579 1586 1586 1592 1587 1611 1597
1588 1589 1589 1588 1588 1588 1587 1587 1586 1586 1586 1586 1584 1583 1584 1588 1584 1586 1588 1590 1590 1590 1592 1592 1593 1593 1597 1600 1592 1594 1590 1591 1592 1592 1593 1596 1601 1590 1575 1564 1564 1562 1563 1580 1574 1564 1566
1584 1586 1586 1586 1586 1586 1586 1586 1585 1585 1585 1585 1585 1584 1584 1584 1584 1585 1587 1588 1587 1588 1590 1591 1592 1587 1590 1594 1586 1590 1584 1586 1586 1593 1594 1595 1594 1589 1579 1555 1562 1559 1550 1553 1556 1549 1543
1579 1581 1582 1583 1583 1584 1584 1584 1584 1583 1583 1584 1583 1583 1583 1584 1585 1588 1584 1581 1582 1582 1583 1582 1584 1587 1587 1581 1580 1580 1580 1581 1582 1586 1592 1596 1596 1592 1570 1556 1549 1546 1538 1543 1544 1544 1531
1574 1575 1577 1578 1578 1579 1580 1581 1581 1581 1581 1582 1582 1583 1583 1583 1582 1582 1579 1580 1580 1580 1581 1579 1580 1582 1580 1579 1578 1576 1576 1576 1578 1581 1584 1591 1595 1593 1581 1559 1528 1511 1522 1522 1520 1508 1511
1566 1568 1570 1571 1572 1574 1575 1576 1578 1577 1577 1578 1578 1581 1580 1580 1576 1575 1574 1575 1576 1576 1578 1577 1576 1576 1576 1577 1578 1575 1574 1576 1577 1579 1581 1583 1590 1595 1592 1585 1529 1508 1517 1520 1519 1501 1494
1557 1558 1560 1562 1564 1567 1569 1570 1571 1573 1573 1574 1574 1576 1577 1577 1569 1569 1570 1571 1573 1574 1574 1573 1574 1574 1575 1575 1580 1578 1570 1565 1569 1581 1582 1583 1586 1595 1591 1588 1544 1504 1505 1506 1508 1510 1485
1551 1552 1553 1554 1556 1558 1560 1562 1564 1566 1567 1569 1570 1571 1573 1572 1568 1568 1569 1568 1567 1567 1569 1570 1570 1573 1575 1578 1581 1581 1570 1567 1566 1562 1580 1586 1594 1593 1586 1580 1536 1501 1502 1506 1505 1487 1480
1546 1546 1546 1547 1547 1550 1551 1553 1556 1558 1560 1563 1564 1565 1567 1565 1564 1563 1563 1561 1562 1564 1566 1567 1570 1569 1574 1578 1574 1566 1568 1567 1571 1558 1562 1562 1573 1578 1580 1580 1520 1494 1503 1501 1482 1477 1478
1539 1539 1541 1541 1542 1542 1544 1545 1548 1550 1553 1555 1556 1557 1558 1560 1557 1555 1554 1554 1556 1555 1556 1557 1557 1555 1555 1561 1565 1565 1562 1568 1566 1544 1548 1551 1535 1536 1533 1502 1482 1481 1478 1477 1476 1475 1475